Home   Weather   USA   Fort Leonard Wood   Past weeks
Flag for USA

Past Weather in Fort Leonard Wood, Missouri, USA — Yesterday and Last 2 Weeks

Currently: 48 °F. Drizzle. Fog. (Weather station: Waynesville Regional Airport, USA). See more current weather

Past Weather in Fort Leonard Wood — Graph

°F

Fort Leonard Wood Temperature Yesterday

Maximum temperature yesterday: 47 °F (at 7:55 pm)
Minimum temperature yesterday: 43 °F (at 7:55 am)
Average temperature yesterday: 45 °F

High & Low Weather Summary for the Past Weeks

 TemperatureHumidityPressure
High71 °F (Nov 29, 2:55 pm)100% (Nov 24, 4:13 am)30.55 "Hg (Nov 24, 4:13 am)
Low20 °F (Dec 1, 6:55 am)25% (Dec 1, 2:55 pm)29.40 "Hg (Nov 27, 3:34 am)
Average44 °F79%30.05 "Hg
* Reported Nov 23 1:55 pm — Dec 8 1:13 pm, Fort Leonard Wood. Weather by CustomWeather, © 2022

Note: Actual official high and low records may vary slightly from our data, if they occured in-between our weather recording intervals... More about our weather records

Fort Leonard Wood Weather History for the Previous 24 Hours

Scroll right to see more
 ConditionsComfort  
Time TempWeatherWind HumidityBarometerVisibility
1:13 pm
Thu, Dec 8
48 °FFog.3 mph100%30.15 "Hg3 mi
1:00 pm48 °FDrizzle. Fog.5 mph100%30.16 "Hg2 mi
12:16 pm48 °FFog.6 mph94%30.17 "Hg5 mi
12:10 pm46 °FDrizzle. Fog.6 mph100%30.18 "Hg3 mi
11:38 am46 °FDrizzle. Fog.6 mph100%30.19 "Hg2 mi
11:15 am46 °FLow clouds.5 mph100%30.20 "Hg7 mi
10:55 am47 °FFog.5 mph100%30.21 "Hg6 mi
9:55 am46 °FFog.5 mph99%30.23 "Hg6 mi
9:29 am46 °FLow clouds.5 mph100%30.23 "Hg7 mi
9:14 am46 °FDrizzle. Fog.5 mph100%30.22 "Hg6 mi
8:05 am46 °FLow clouds.6 mph100%30.19 "Hg7 mi
6:55 am46 °FLow clouds.3 mph100%30.21 "Hg10 mi
6:04 am46 °FLow clouds.3 mph100%30.21 "Hg10 mi
5:55 am47 °FDrizzle. Low clouds.5 mph100%30.20 "Hg10 mi
5:32 am46 °FDrizzle. Low clouds.8 mph100%30.19 "Hg10 mi
5:22 am46 °FDrizzle. Low clouds.7 mph100%30.19 "Hg10 mi
5:14 am46 °FLow clouds.10 mph100%30.19 "Hg10 mi
4:55 am47 °FLight rain. Low clouds.10 mph100%30.20 "Hg8 mi
4:17 am46 °FLow clouds.5 mph100%30.22 "Hg10 mi
4:00 am46 °FLight rain. Low clouds.8 mph100%30.20 "Hg9 mi
3:35 am48 °FLight rain. Low clouds.7 mph100%30.22 "Hg7 mi
2:55 am47 °FLight rain. Low clouds.6 mph100%30.23 "Hg7 mi
1:55 am47 °FLight rain. Low clouds.7 mph100%30.22 "Hg7 mi
12:55 am47 °FLight rain. Fog.5 mph100%30.25 "Hg5 mi
12:10 am46 °FRain. Fog.6 mph100%30.25 "Hg4 mi
12:05 am46 °FRain. Fog.6 mph100%30.26 "Hg4 mi
11:00 pm
Wed, Dec 7
46 °FLight rain. Low clouds.No wind100%30.26 "Hg9 mi
10:30 pm46 °FDrizzle. Low clouds.3 mph100%30.25 "Hg10 mi
10:21 pm46 °FLow clouds.5 mph100%30.25 "Hg10 mi
10:11 pm46 °FOvercast.3 mph100%30.26 "Hg10 mi
9:55 pm47 °FDrizzle. Mostly cloudy.3 mph100%30.26 "Hg10 mi
9:29 pm46 °FMostly cloudy.5 mph100%30.25 "Hg10 mi
9:09 pm46 °FLow clouds.6 mph100%30.25 "Hg10 mi
8:55 pm47 °FLight rain. Low clouds.5 mph96%30.28 "Hg10 mi
8:38 pm46 °FDrizzle. Low clouds.3 mph93%30.29 "Hg10 mi
7:55 pm47 °FLow clouds.3 mph94%30.29 "Hg10 mi
6:55 pm47 °FLow clouds.6 mph95%30.28 "Hg10 mi
4:55 pm47 °FLow clouds.No wind95%30.29 "Hg10 mi
3:55 pm47 °FLow clouds.No wind96%30.27 "Hg10 mi
2:55 pm47 °FLow clouds.3 mph96%30.26 "Hg10 mi
Weather by CustomWeather, © 2022

See weather overview